Tracking 22780 objects as of 11-Apr-2021
HD Live streaming from Space Station
objects crossing your sky now

ZY 3

Track ZY 3 now!
10-day predictions
ZY 3 is classified as:


NORAD ID: 38046
Int'l Code: 2012-001A
Perigee: 507.9 km
Apogee: 510.1 km
Inclination: 97.4 °
Period: 94.7 minutes
Semi major axis: 6879 km
RCS: 5.391 m2 (large)
Launch date: January 9, 2012
Source: People's Republic of China (PRC)
Launch site: Taiyaun Space Center, China (TSC)
aabbcc
Your satellite tracking list
Your tracking list is empty




NASA's NSSDC Master Catalog

Two Line Element Set (TLE):
1 38046U 12001A   21101.10386688  .00000790  00000-0  38346-4 0  9994
2 38046  97.3843 176.3921 0001595 182.4053 265.5447 15.21330998513877
Source of the keplerian elements: AFSPC